Location: Unspecified
(0.0000°N, 0.0000°E)
Time: 18:27:55
(UTC+00:00)

Vanguard 3 - Pass Details

Date: 11 February 2023
Orbit: 509 x 3249 km, 33.3° (Epoch: 20 March)

Event Time Altitude Azimuth Distance (km) Brightness Sun altitude
Rises 13:33:48 0° 260° (W) 2,707 10.2 65.8°
Reaches altitude 10° 13:36:32 10° 279° (W) 1,721 9.3 65.3°
Maximum altitude 13:39:14 19° 327° (NNW) 1,254 8.4 64.7°
Drops below altitude 10° 13:42:03 10° 15° (NNE) 1,806 8.9 64.2°
Sets 13:45:02 0° 34° (NNE) 2,898 9.8 63.5°
